www.pogodaiklimat.ru

Погода и климат >> Архив погоды >> Франция >> Тулуза аэропорт


ПОГОДА в Тулуза аэропорту

  • Прогноз погоды в Тулуза аэропорту
  • Монитор погоды в Тулуза аэропорту

АРХИВ ПОГОДЫ в Тулуза аэропорту

Время (UTC), дата Ветер
(напр.,м/с)
 
Видим.   Явления Облачность Т
(С)
Тd
(С)
f
(%)
Тe
(С)
Тes
(С)
Комфортность P
(гПа)
Po
(гПа)
Тmin
(С)
Tmax
(С)
R
(мм)
R24
(мм)
S
(см)
10 17.06 ЮВ 1
{3}
35 км н/о +25.8 +11.9 42 +27 +27 жарко 1016.5 996.8
11 17.06 В 2
{5}
50 км н/о +26.7 +10.0 35 +27 +27 жарко 1016.2 996.5
13 17.06 СЗ 2
{8}
50 км н/о +29.4 +7.9 26 +29 +29 жарко 1014.7 995.2
14 17.06 СВ 2
{7}
50 км н/о +29.7 +7.6 25 +29 +29 жарко 1014.1 994.6
16 17.06 В 3
{6}
50 км н/о +30.9 +6.7 22 +29 +29 жарко 1012.8 993.4
17 17.06 В 3
{8}
55 км н/о +30.5 +7.6 24 +29 +29 жарко 1012.5 993.1
19 17.06 В 2
{4}
55 км н/о +28.0 +7.3 27 +27 +27 жарко 1012.7 993.1
20 17.06 В 1
{2}
9000 м н/о +25.0 +9.3 37 +26 +26 жарко 1012.9 993.2
22 17.06 ЮВ 2
{3}
55 км н/о +21.0 +11.1 53 +24 +24 комфорт 1013.6 993.6
23 17.06 ЮВ 2
{5}
18 км 10/0
[]
+21.9 +10.1 47 +24 +24 комфорт 1013.4 993.4
01 18.06 Ю 2
{5}
55 км 10/0
[]
+20.7 +10.2 51 +23 +23 комфорт 1012.5 992.5
04 18.06 ЮЗ 2
{3}
19 км 10/0
[]
+17.5 +12.0 70 +18 +18 1012.1 991.9
05 18.06 Ю 1
{3}
45 км 10/0
[]
+18.1 +11.6 66 +19 +20 1012.1 991.9
07 18.06 ЮВ 4
{9}
45 км 10/0
[]
+21.4 +10.5 50 +23 +25 комфорт 1011.6 991.7
08 18.06 ЮВ 4
{9}
19 км 10/0
[]
+23.8 +11.1 45 +25 +28 комфорт 1011.8 992.0
10 18.06 ЮВ 5
{9}
19 км н/о +26.5 +13.3 44 +28 +28 жарко 1011.5 991.9
11 18.06 ЮВ 4
{10}
19 км н/о +27.7 +12.9 40 +29 +29 жарко 1010.8 991.3
13 18.06 ЮВ 5
{10}
18 км н/о +30.6 +14.2 37 +32 +32 жарко 1009.4 990.1
14 18.06 ЮВ 4
{10}
19 км н/о +31.3 +13.6 34 +33 +33 жарко 1008.9 989.7
16 18.06 ЮВ 5
{12}
18 км н/о +30.8 +13.1 34 +32 +32 жарко 1008.2 988.9
17 18.06 ЮВ 5
{11}
50 км н/о +29.7 +14.3 39 +32 +32 душно 1008.0 988.7
20 18.06 ЮВ 5
{9}
50 км н/о +24.5 +12.4 47 +26 +26 жарко 1008.7 989.0
22 18.06 ЮВ 3
{9}
45 км н/о +21.0 +12.4 58 +24 +24 комфорт 1009.2 989.3
23 18.06 ЮВ 4
{8}
45 км н/о +20.2 +12.2 60 +22 +22 комфорт 1008.9 988.9
01 19.06 З 2
{5}
45 км н/о +18.7 +12.0 65 +20 +20 1010.6 990.5
02 19.06 З 3
{5}
45 км н/о +18.2 +13.7 75 +19 +19 1011.6 991.5
04 19.06 З 3
{7}
12 км 10/10 300 м
[]
+17.8 +14.7 82 +18 +18 1012.8 992.6
05 19.06 З 3
{5}
13 км 10/10 300 м
[]
+17.6 +14.1 80 +18 +18 1013.2 993.0
08 19.06 З 1
{5}
16 км н/о +20.4 +14.5 69 +24 +24 комфорт 1013.4 993.4
10 19.06 З 2
{4}
19 км н/о +23.6 +14.3 56 +26 +26 жарко 1012.7 992.9
11 19.06 Ю 2
{4}
19 км н/о +26.0 +14.8 50 +29 +29 душно 1012.3 992.7
13 19.06 З 2
{7}
45 км н/о +28.2 +14.4 43 +30 +30 жарко 1012.1 992.6
14 19.06 СЗ 2
{6}
45 км н/о +27.6 +13.5 42 +29 +29 жарко 1011.7 992.2
16 19.06 С 5
{8}
35 км 10/10 1500 м
[]
+27.2 +15.2 48 +30 +30 душно 1011.7 992.2
17 19.06 С 5
{8}
35 км 10/10 1500 м
[]
+26.7 +15.4 50 +30 +30 душно 1011.9 992.3
19 19.06 С 3
{6}
40 км 10/0
[]
+25.0 +14.8 53 +28 +28 жарко 1012.9 993.2
20 19.06 С 3
{6}
18 км 8/0
[]
+23.7 +14.9 58 +27 +27 жарко 1013.2 993.4
22 19.06 СВ 3
{38}
25 км 10/0 2000 м
[]
+16.0 +15.4 96 +15 +15 1015.2 994.8 36
01 20.06 СЗ 1
{6}
19 км слаб. дождь 10/10 600 м
[]
+17.2 +16.6 96 +19 +19 1015.5 995.2 0.0
02 20.06 СЗ 2
{4}
19 км 10/10 600 м
[]
+17.4 +16.8 96 +18 +18 1016.2 995.9 0.2
04 20.06 СЗ 2
{4}
18 км 10/10 1000 м
[]
+16.1 +15.3 95 +16 +16 1016.8 996.4
05 20.06 СЗ 3
{4}
45 км 10/10 1000 м
[]
+16.4 +15.4 94 +16 +16 1016.9 996.5
07 20.06 СЗ 4
{5}
19 км 10/10 300 м
[]
+17.9 +16.2 90 +18 +18 1017.2 996.9
08 20.06 СЗ 4
{6}
40 км 10/10 300 м
[]
+18.2 +15.3 83 +18 +18 1016.7 996.5
10 20.06 С 3
{4}
50 км 10/10 300 м
[]
+18.4 +14.1 76 +19 +19 1017.2 997.0
11 20.06 СЗ 2
{4}
45 км 10/10 300 м
[]
+19.0 +14.5 75 +21 +21 комфорт 1017.3 997.1
13 20.06 СЗ 3
{5}
50 км 10/10 1000 м
[]
+20.9 +14.8 68 +24 +24 комфорт 1016.3 996.3
14 20.06 СЗ 4
{4}
50 км 10/10 600 м
[]
+20.5 +14.4 68 +23 +23 комфорт 1016.0 995.9
16 20.06 СЗ 4
{6}
55 км 10/10 1000 м
[]
+21.8 +14.2 62 +25 +25 комфорт 1015.4 995.4
17 20.06 СЗ 5
{6}
50 км 10/10 1500 м
[]
+21.5 +14.6 65 +25 +25 комфорт 1015.3 995.3
19 20.06 С 3
{5}
50 км слаб. дождь 10/10 1000 м
[]
+19.6 +14.8 74 +22 +22 комфорт 1015.6 995.5 0.0
20 20.06 З 3
{4}
19 км 10/10 600 м
[]
+19.4 +15.5 78 +22 +22 комфорт 1016.4 996.3 0.0
22 20.06 СЗ 1
{4}
18 км 10/10 1000 м
[]
+18.2 +15.3 83 +20 +20 1016.7 996.5 0.0
23 20.06 штиль 0
{2}
45 км 10/10 1500 м
[]
+18.1 +15.0 82 +18 +18 1016.4 996.2
01 21.06 З 2
{4}
40 км 10/10 1000 м
[]
+17.9 +15.2 84 +18 +18 1016.0 995.8 0.0
02 21.06 З 3
{4}
19 км дождь 10/10 600 м
[]
+17.5 +15.5 88 +18 +18 1016.1 995.8 0.2
04 21.06 З 2
{3}
30 км 10/10 1000 м
[]
+17.1 +15.3 89 +17 +17 1015.5 995.2
05 21.06 З 2
{4}
26 км 10/10 200 м
[]
+16.9 +15.2 90 +17 +17 1015.9 995.6 0.0
07 21.06 З 1
{3}
11 км дождь 10/0 2000 м
[]
+16.7 +15.6 93 +18 +21 1017.0 996.7 2
08 21.06 СЗ 3
{5}
8000 м дождь 10/10 200 м
[]
+16.5 +15.5 94 +16 +16 1017.1 996.7 3
10 21.06 З 6
{8}
12 км слаб. дождь 10/10 200 м
[]
+16.0 +14.5 91 +15 +15 1018.0 997.6 0.4
11 21.06 З 6
{8}
19 км 10/10 200 м
[]
+16.1 +14.3 89 +15 +15 1018.5 998.1 0.0
13 21.06 З 5
{8}
55 км 10/10 300 м
[]
+16.2 +13.1 82 +15 +15 1018.7 998.3
14 21.06 З 4
{7}
55 км 10/10 300 м
[]
+16.4 +13.3 82 +16 +16 1018.9 998.5
16 21.06 З 4
{7}
35 км 10/10 300 м
[]
+16.1 +13.6 85 +15 +15 1019.1 998.7
17 21.06 З 3
{6}
15 км 10/10 300 м
[]
+16.3 +13.6 84 +16 +16 1019.2 998.8
20 21.06 З 4
{7}
45 км 9/9 1000 м
[]
+15.5 +13.2 86 +15 +15 1020.0 999.5
22 21.06 З 3
{5}
45 км 10/10 1000 м
[]
+15.8 +13.3 85 +15 +15 1020.5 1000.0
23 21.06 З 3
{6}
35 км 10/10 600 м
[]
+15.7 +13.4 86 +15 +15 1020.4 999.9
01 22.06 З 3
{4}
27 км 10/10 300 м
[]
+15.5 +13.5 88 +15 +15 1019.9 999.4
02 22.06 З 2
{4}
19 км 10/10 300 м
[]
+15.3 +13.5 89 +15 +15 1019.5 999.0
04 22.06 З 1
{3}
9000 м н/о +14.3 +12.8 91 +15 +15 1018.9 998.3
05 22.06 З 2
{4}
10 км н/о +14.3 +13.0 92 +14 +14 1018.8 998.2
07 22.06 З 3
{5}
35 км 10/10 300 м
[]
+16.3 +13.0 81 +16 +16 1018.9 998.5
08 22.06 СЗ 2
{5}
40 км 10/10 300 м
[]
+16.8 +12.9 78 +17 +17 1018.8 998.4
10 22.06 СВ 1
{4}
19 км н/о +21.1 +13.3 61 +23 +23 комфорт 1018.1 998.0
11 22.06 С 2
{4}
50 км н/о +22.1 +13.7 59 +25 +25 комфорт 1017.6 997.6
13 22.06 ЮВ 1
{4}
50 км н/о +23.3 +12.6 51 +26 +26 жарко 1016.4 996.5
14 22.06 В 2
{4}
40 км н/о +24.6 +12.9 48 +27 +27 жарко 1015.5 995.7
16 22.06 Ю 2
{6}
45 км н/о +24.7 +13.3 49 +27 +27 жарко 1014.5 994.7
17 22.06 В 3
{5}
55 км н/о +24.7 +12.9 48 +27 +27 жарко 1014.1 994.3
20 22.06 В 2
{3}
2700 м дымка н/о +21.2 +13.1 60 +24 +24 комфорт 1014.4 994.4
22 22.06 В 1
{2}
35 км н/о +17.9 +13.6 76 +19 +19 1014.3 994.1
23 22.06 Ю 2
{2}
35 км н/о +17.3 +13.2 77 +18 +18 1014.1 993.8
01 23.06 ЮЗ 1
{2}
40 км н/о +15.9 +13.6 86 +17 +17 1013.6 993.3
02 23.06 Ю 1
{2}
35 км н/о +15.1 +12.8 86 +16 +16 1013.3 992.9
04 23.06 Ю 1
{4}
55 км н/о +15.7 +12.1 79 +16 +16 1012.6 992.3
05 23.06 штиль 0
{2}
40 км н/о +16.0 +12.5 80 +16 +16 1012.7 992.4
08 23.06 ЮВ 3
{7}
55 км ?/? +23.4 +14.9 59 +27 +27 душно 1012.6 992.8
10 23.06 ЮВ 5
{9}
19 км н/о +25.9 +15.0 51 +29 +29 душно 1012.1 992.5
11 23.06 ЮВ 5
{11}
50 км н/о +27.6 +15.3 47 +30 +30 жарко 1012.1 992.6
13 23.06 ЮВ 3
{9}
55 км н/о +29.0 +16.9 48 +33 +33 очень
душно
1011.6 992.2
14 23.06 В 5
{8}
50 км н/о +30.6 +15.8 41 +33 +33 душно 1011.3 992.0
16 23.06 ЮВ 4
{8}
55 км н/о +30.9 +15.7 40 +34 +34 душно 1011.0 991.7
17 23.06 ЮВ 3
{8}
55 км н/о +29.9 +14.8 40 +32 +32 жарко 1011.2 991.8
19 23.06 ЮВ 2
{8}
55 км н/о +26.7 +13.4 44 +29 +29 жарко 1012.3 992.7
20 23.06 ЮВ 2
{6}
600 м н/о +25.2 +13.4 48 +27 +27 жарко 1012.8 993.1
22 23.06 ЮВ 4
{9}
55 км н/о +23.7 +13.6 53 +26 +26 жарко 1013.3 993.5
23 23.06 ЮВ 4
{10}
50 км н/о +22.6 +14.2 59 +26 +26 жарко 1013.3 993.4

 

Местоположение метеостанции Тулуза аэропорт (Франция): широта 43.53 долгота 1.37 высота над уровнем моря 166 м.

В архиве по умолчанию представлена погода в Тулуза аэропорту за последнюю неделю. Архивные данные за месяц целиком и за предыдущие месяцы, начиная с января 2011 года, Вы можете получить, выбрав интересующий диапазон дат из раскрывающегося списка и нажав кнопку "Ввод!".


*Определитесь, кто Вы:
робот инопланетянин человек

Внимание! Время в таблицах - всемирное. Для получения местного времени необходимо прибавить поправку, которая равна 1 ч.

Смотрите также архив погоды в соседних городах и на ближайших метеорологических станциях:

Погода в Тулузе (Франция) (11 км)
Погода в Мюре-Лерм (Франция) (13 км)
Погода в Монтобане (Франция) (56 км)
Погода в Сен-Жироне (Франция) (63 км)
Погода в Оше (Франция) (64 км)
Погода в Альби (Франция) (74 км)
Погода в Каркассоне (Франция) (84 км)
Погода в Ажане (Франция) (95 км)
Погода в Артьесе (Испания) (101 км)
Погода в Тарбе (Франция) (117 км)

Пояснения к столбцам:

Ветер - указаны скорость ветра в м/с - средняя за 10 мин, порывы в срок и между сроками (в фигурных скобках) и направление, откуда дует ветер: С - северный, СВ - северо-восточный, В - восточный, ЮВ - юго-восточный, Ю - южный, ЮЗ - юго-западный, З - западный, СЗ - северо-западный.
Видимость - горизонтальная дальность видимости в метрах или километрах. При видимости от 1 до 10 км при отсутствии осадков обычно наблюдается дымка, при ухудшении видимости до 1 км и менее - туман. В сухую погоду видимость может ухудшаться дымом, пылью или мглою.
Явления - указаны атмосферные явления, наблюдавшиеся в срок или в последний час перед сроком; фигурными скобками обозначены явления, наблюдавшиеся между сроками (за 1-3 часа до срока); квадратными скобками обозначены град или гололедные отложения с указанием их диаметра в мм.
Облачность - указаны через наклонную черту общая и нижняя облачность в баллах и высота нижней границы облаков в метрах; квадратными скобками обозначены формы облаков: Ci - перистые, Cs - перисто-слоистые, Cc - перисто-кучевые, Ac - высококучевые, As - высокослоистые, Sc - слоисто-кучевые, Ns - слоисто-дождевые, Cu - кучевые, Cb - кучево-дождевые. Подробнее классификацию облаков см. в Атласе облаков (PDF).
T - Температура воздуха - температура, измеренная на высоте 2 м над землей.
Td - Температура точки росы - температура, при понижении до которой содержащийся в воздухе водяной пар достигнет насыщения.
f - Относительная влажность воздуха - влажноcть воздуха, измеренная на высоте 2 м над землей.
Te - Эффективная температура - температура, которую ощущает одетый по сезону человек в тени. Характеристика душности погоды. При расчете учитывается влияние влажности воздуха и скорости ветра на теплоощущения человека.
Tes - Эффективная температура на солнце - температура, которую ощущает человек, с поправкой на солнечный нагрев. Характеристика знойности погоды. Зависит от высоты солнца над горизонтом, облачности и скорости ветра. Ночью, в пасмурную погоду, а также при ветре 12 м/с и более поправка равна нулю.
P - Атмосферное давление - приведенное к уровню моря атмосферное давление.
Po - Атмосферное давление - измеренное на уровне метеостанции атмосферное давление.
Tmin - Минимальная температура - минимум температуры воздуха на высоте 2 м над землей.
Tmax - Максимальная температура - максимум температуры воздуха на высоте 2 м над землей.
R - Количество осадков - Количество выпавших осадков за период времени, мм. При наведении курсора мыши на число - период времени, за который выпало указанное количество осадков.
R24 - Количество осадков - Количество выпавших осадков за 24 часа, мм.
S - Снежный покров - Высота снежного покрова, см. При наведении курсора мыши на число - состояние снежного покрова и степень покрытия местности в баллах.